Weather History for Albany, NY

Change the Weather History Date:

Sunday, January 1, 2012

  Actual Average Record
Temperature  
Mean Temperature 40 °F 24 °F  
Max Temperature 51 °F 31 °F 57 °F (1966)
Min Temperature 28 °F 16 °F -18 °F (1970)
Degree Days  
Heating Degree Days 25 41  
Month to date heating degree days 25 41  
Since 1 July heating degree days 2035 2576  
Cooling Degree Days 0 0  
Month to date cooling degree days 0 0  
Year to date cooling degree days 0 0  
Moisture  
Dew Point 37 °F    
Average Humidity 77    
Maximum Humidity 100    
Minimum Humidity 54    
Precipitation  
Precipitation T in 0.08 in 0.95 in (1935)
Month to date precipitation T 0.08  
Year to date precipitation T 0.08  
Snow  
Snow 0.00 in 0.60 in 9.20 in (1961)
Month to date snowfall 0.0 0.6  
Since 1 July snowfall 6.1 17.1  
Snow Depth 0.00 in    
Sea Level Pressure  
Sea Level Pressure 29.87 in    
Wind  
Wind Speed 11 mph (South)    
Max Wind Speed 26 mph    
Max Gust Speed 38 mph    
Visibility 9 miles    
Events Fog , Rain    
T = Trace of Precipitation, MM = Missing Value Source: NWS Daily Summary

Daily Weather History Graph

Daily Weather History Graph

Search for Another Location

Airport:

Trip Planner

Search our weather history database for the weather conditions in past years. The results will help you decide how hot, cold, wet, or windy it might be!

Date:

Astronomy

Jan. 01, 2012 Rise Set
Actual Time 7:25 AM EST 4:31 PM EST
Civil Twilight 6:53 AM EST 5:03 PM EST
Nautical Twilight 6:18 AM EST 5:39 PM EST
Astronomical Twilight 5:43 AM EST 6:13 PM EST
Moon 11:24 AM EST 12:12 AM EST
Length of Visible Light 10h 10m
Length of Day
9h 05m
First Quarter, 54% of the Moon is Illuminated
Jan 1
First Quarter
Jan 9
Full
Jan 16
Last Quarter
Jan 23
New
Jan 30
First Quarter

Hourly Weather History & Observations

Time (EST) Temp. Windchill Dew Point Humidity Pressure Visibility Wind Dir Wind Speed Gust Speed Precip Events Conditions
12:12 AM 42.8 °F 39.3 °F 39.2 °F 87% 30.01 in 10.0 mi NW 5.8 mph - N/A   Overcast
12:51 AM 42.8 °F 37.0 °F 39.2 °F 87% 30.01 in 10.0 mi West 10.4 mph - N/A   Overcast
1:51 AM 42.8 °F 38.0 °F 37.4 °F 81% 30.03 in 10.0 mi WNW 8.1 mph 18.4 mph N/A   Overcast
2:51 AM 42.1 °F 37.1 °F 37.9 °F 85% 30.05 in 10.0 mi NW 8.1 mph - N/A   Overcast
3:25 AM 41.0 °F 38.0 °F 37.4 °F 87% 30.05 in 10.0 mi Variable 4.6 mph - N/A   Overcast
3:51 AM 41.0 °F 36.4 °F 37.0 °F 86% 30.05 in 10.0 mi NW 6.9 mph - N/A   Overcast
4:51 AM 37.9 °F 35.5 °F 36.0 °F 93% 30.04 in 10.0 mi NNW 3.5 mph - N/A   Mostly Cloudy
5:51 AM 37.0 °F 33.3 °F 35.1 °F 93% 30.05 in 10.0 mi North 4.6 mph - N/A   Scattered Clouds
6:51 AM 30.0 °F - 28.9 °F 96% 30.05 in 6.0 mi Calm Calm - N/A Fog Shallow Fog
7:51 AM 28.9 °F 25.2 °F 28.9 °F 100% 30.07 in 8.0 mi SSW 3.5 mph - N/A Fog Shallow Fog
8:51 AM 33.1 °F - 32.0 °F 96% 30.08 in 8.0 mi Calm Calm - N/A   Overcast
9:51 AM 37.4 °F 33.8 °F 35.6 °F 93% 30.04 in 8.0 mi SSE 4.6 mph - N/A   Overcast
10:31 AM 39.2 °F - 37.4 °F 93% 30.01 in 10.0 mi Calm Calm - N/A   Overcast
10:51 AM 39.9 °F 35.8 °F 37.0 °F 89% 30.00 in 10.0 mi South 5.8 mph - N/A   Overcast
11:51 AM 45.0 °F 40.1 °F 37.0 °F 74% 29.93 in 10.0 mi SSE 9.2 mph - N/A   Mostly Cloudy
12:51 PM 48.9 °F - 37.0 °F 64% 29.87 in 10.0 mi South 16.1 mph 24.2 mph N/A   Mostly Cloudy
1:51 PM 48.2 °F - 35.6 °F 62% 29.81 in 10.0 mi SSE 18.4 mph 28.8 mph N/A   Mostly Cloudy
2:51 PM 50.0 °F - 36.0 °F 59% 29.75 in 10.0 mi SSE 17.3 mph 27.6 mph N/A   Mostly Cloudy
3:51 PM 51.1 °F - 35.1 °F 54% 29.73 in 10.0 mi South 11.5 mph 21.9 mph N/A   Mostly Cloudy
4:51 PM 50.0 °F - 35.1 °F 57% 29.72 in 10.0 mi South 20.7 mph 32.2 mph N/A   Overcast
5:51 PM 48.9 °F - 37.0 °F 64% 29.70 in 10.0 mi SSE 16.1 mph 28.8 mph 0.00 in   Overcast
6:51 PM 48.0 °F - 37.0 °F 66% 29.70 in 10.0 mi South 18.4 mph 24.2 mph 0.00 in   Overcast
7:51 PM 46.0 °F 39.9 °F 39.0 °F 76% 29.67 in 10.0 mi South 13.8 mph 26.5 mph 0.00 in Rain Light Rain
8:28 PM 44.6 °F 38.1 °F 39.2 °F 81% 29.63 in 10.0 mi SSE 13.8 mph 28.8 mph 0.00 in   Overcast
8:51 PM 45.0 °F 37.1 °F 39.9 °F 82% 29.65 in 10.0 mi South 19.6 mph 27.6 mph 0.00 in   Overcast
9:51 PM 44.1 °F 37.7 °F 41.0 °F 89% 29.63 in 10.0 mi South 12.7 mph 29.9 mph 0.00 in Rain Light Rain
10:51 PM 45.0 °F 38.2 °F 41.0 °F 86% 29.61 in 9.0 mi South 15.0 mph 25.3 mph 0.00 in   Overcast
11:39 PM 44.6 °F 38.4 °F 42.8 °F 93% 29.59 in 7.0 mi South 12.7 mph 20.7 mph N/A Rain Light Rain
11:51 PM 44.6 °F 38.1 °F 42.8 °F 93% 29.59 in 6.0 mi South 13.8 mph 23.0 mph N/A Rain Light Rain